TimePDT,TemperatureF,Dew PointF,Humidity,Sea Level PressureIn,VisibilityMPH,Wind Direction,Wind SpeedMPH,Gust SpeedMPH,PrecipitationIn,Events,Conditions,WindDirDegrees,DateUTC
12:53 AM,41.0,32.0,70,30.33,10.0,WSW,5.8,-,N/A,,Clear,240,2013-03-11 07:53:00
1:53 AM,41.0,32.0,70,30.34,10.0,WSW,4.6,-,N/A,,Clear,250,2013-03-11 08:53:00
2:53 AM,37.0,30.9,79,30.34,10.0,Calm,Calm,-,N/A,,Clear,0,2013-03-11 09:53:00
3:53 AM,42.1,33.1,70,30.33,10.0,West,6.9,-,N/A,,Clear,260,2013-03-11 10:53:00
4:53 AM,48.0,34.0,58,30.32,10.0,Variable,5.8,-,N/A,,Clear,0,2013-03-11 11:53:00
5:53 AM,48.0,33.1,56,30.31,10.0,NNW,16.1,-,N/A,,Scattered Clouds,340,2013-03-11 12:53:00
6:53 AM,46.0,33.1,61,30.32,10.0,NW,9.2,-,N/A,,Mostly Cloudy,310,2013-03-11 13:53:00
7:53 AM,44.1,34.0,68,30.32,10.0,West,6.9,-,N/A,,Mostly Cloudy,270,2013-03-11 14:53:00
8:53 AM,46.0,34.0,63,30.33,10.0,WSW,4.6,-,N/A,,Mostly Cloudy,240,2013-03-11 15:53:00
9:53 AM,48.0,34.0,58,30.34,10.0,Calm,Calm,-,N/A,,Overcast,0,2013-03-11 16:53:00
10:53 AM,50.0,33.1,52,30.34,10.0,NE,3.5,-,N/A,,Overcast,40,2013-03-11 17:53:00
11:53 AM,53.1,32.0,45,30.34,10.0,Variable,3.5,-,N/A,,Mostly Cloudy,0,2013-03-11 18:53:00
12:53 PM,54.0,30.9,41,30.32,10.0,East,4.6,-,N/A,,Partly Cloudy,90,2013-03-11 19:53:00
1:53 PM,55.9,30.9,39,30.31,10.0,Calm,Calm,-,N/A,,Partly Cloudy,0,2013-03-11 20:53:00
2:53 PM,57.9,32.0,37,30.28,10.0,Calm,Calm,-,N/A,,Clear,0,2013-03-11 21:53:00
3:53 PM,59.0,32.0,36,30.25,10.0,Calm,Calm,-,N/A,,Clear,0,2013-03-11 22:53:00
4:53 PM,57.9,35.1,42,30.24,10.0,South,6.9,-,N/A,,Partly Cloudy,170,2013-03-11 23:53:00
5:53 PM,57.0,34.0,42,30.22,10.0,South,5.8,-,N/A,,Clear,180,2013-03-12 00:53:00
6:53 PM,57.0,33.1,40,30.21,10.0,Calm,Calm,-,N/A,,Overcast,0,2013-03-12 01:53:00
7:53 PM,55.0,33.1,43,30.22,10.0,East,3.5,-,N/A,,Overcast,90,2013-03-12 02:53:00
8:53 PM,51.1,30.9,46,30.22,10.0,East,4.6,-,N/A,,Overcast,90,2013-03-12 03:53:00
9:53 PM,48.9,32.0,52,30.22,10.0,East,4.6,-,N/A,,Overcast,80,2013-03-12 04:53:00
10:53 PM,46.9,30.9,54,30.21,10.0,East,5.8,-,N/A,,Scattered Clouds,80,2013-03-12 05:53:00
11:53 PM,46.0,32.0,58,30.19,10.0,Variable,3.5,-,N/A,,Partly Cloudy,0,2013-03-12 06:53:00